Flag for Canada Weather past 2 weeks in Brampton, Ontario, Canada

Now
72 °F

Scattered clouds.


Feels Like: 77 °F
Forecast: N/A
Wind: 16 mph from West

Location: Toronto Pearson International Airport

Current Time: Sep 21, 2014 at 6:11:07 PM

Latest Report: Sep 21, 2014 at 5:00 PM


Visibility: 15 mi

Pressure: 29.57 "Hg

Humidity: 53%

Dew point: 54 °F

Location of BramptonLocation

Historic Weather in Brampton — Graph

°F

Brampton temperature yesterday

Maximum temperature yesterday: 77 °F (at 3:00 PM)
Minimum temperature yesterday: 48 °F (at 3:00 AM)
Average temperature yesterday: 64 °F

Past Weeks' High & Low Weather Summary

 TemperatureHumidityPressure
High77 °F (Sep 20, 3:00 PM)94% (Sep 10, 1:00 AM)30.36 "Hg (Sep 10, 1:00 AM)
Low41 °F (Sep 19, 2:00 AM)41% (Sep 8, 4:00 PM)29.52 "Hg (Sep 11, 4:00 AM)
Average59 °F72%30.07 "Hg
* Reported Sep 6 5:00 PM — Sep 21 5:00 PM, Brampton, Weather by CustomWeather, © 2014

Note: Actual official high and low records may vary slightly from our data, if they occured in-between our weather recording intervals... More about our weather records

Advertising

Brampton weather history for previous 24 hours

 ConditionsComfort  
Time TempWeatherWind HumidityBarometerVisibility
5:00 PM
Sep 21
72 °FScattered clouds.16 mph53%29.57 "Hg15 mi
4:00 PM73 °FScattered clouds.17 mph50%29.55 "Hg15 mi
3:00 PM75 °FScattered clouds.20 mph47%29.55 "Hg15 mi
2:00 PM75 °FPassing clouds.23 mph50%29.55 "Hg15 mi
1:00 PM75 °FScattered clouds.22 mph57%29.55 "Hg15 mi
12:00 PM73 °FScattered clouds.21 mph65%29.54 "Hg15 mi
11:00 AM72 °FPartly sunny.21 mph73%29.54 "Hg15 mi
10:00 AM68 °FBroken clouds.10 mph94%29.53 "Hg10 mi
9:54 AM66 °FPartly sunny.14 mph94%29.53 "Hg10 mi
9:00 AM64 °FSprinkles. Fog.13 mph94%29.54 "Hg5 mi
8:00 AM64 °FSprinkles. Fog.8 mph94%29.58 "Hg3 mi
7:00 AM66 °FRain showers. Overcast.5 mph88%29.63 "Hg6 mi
6:57 AM66 °FRain showers. Overcast.5 mph88%29.63 "Hg6 mi
6:00 AM66 °FMostly cloudy.5 mph83%29.65 "Hg15 mi
5:00 AM66 °FMostly cloudy.9 mph83%29.67 "Hg15 mi
4:00 AM66 °FPassing clouds.9 mph83%29.68 "Hg15 mi
3:00 AM66 °FPartly cloudy.16 mph83%29.70 "Hg15 mi
2:00 AM68 °FPartly cloudy.13 mph78%29.71 "Hg15 mi
1:00 AM70 °FMostly cloudy.10 mph78%29.74 "Hg15 mi
12:00 AM70 °FPartly cloudy.7 mph83%29.73 "Hg15 mi
11:00 PM
Sep 20
72 °FPassing clouds.15 mph73%29.76 "Hg15 mi
10:00 PM72 °FPassing clouds.16 mph73%29.78 "Hg15 mi
9:00 PM72 °FPassing clouds.10 mph73%29.78 "Hg15 mi
8:00 PM73 °FPartly sunny.12 mph65%29.79 "Hg15 mi
7:00 PM73 °FBroken clouds.15 mph61%29.79 "Hg15 mi
6:00 PM75 °FBroken clouds.21 mph57%29.82 "Hg15 mi
Weather by CustomWeather, © 2014

See weather overviewHow to use our weather pages